TimeCET,TemperatureF,Dew PointF,Humidity,Sea Level PressureIn,VisibilityMPH,Wind Direction,Wind SpeedMPH,Gust SpeedMPH,PrecipitationIn,Events,Conditions,WindDirDegrees,DateUTC
1:55 AM,44.6,35.6,71,30.15,6.2,ENE,5.8,-,N/A,,Mostly Cloudy,60,2012-12-14 00:55:00
2:55 AM,41.0,39.2,93,30.15,6.2,NE,9.2,-,N/A,Rain,Light Rain,50,2012-12-14 01:55:00
3:55 AM,41.0,41.0,100,30.15,6.2,NNE,8.1,-,N/A,,Mostly Cloudy,20,2012-12-14 02:55:00
4:00 AM,42,40,92,30.16,6,NNE,8.1,,,,Partly Cloudy,20,2012-12-14 03:00:00
4:55 AM,41.0,41.0,100,30.15,6.2,NNE,8.1,-,N/A,,Mostly Cloudy,20,2012-12-14 03:55:00
5:55 AM,42.8,41.0,93,30.12,6.2,NE,5.8,-,N/A,,Mostly Cloudy,40,2012-12-14 04:55:00
6:55 AM,42.8,41.0,93,30.12,3.7,NNE,5.8,-,N/A,Rain,Light Rain,30,2012-12-14 05:55:00
7:00 AM,42,40,91,30.14,4,NNE,5.8,,,,Overcast,30,2012-12-14 06:00:00
7:23 AM,42.8,41.0,93,30.12,2.5,NE,9.2,-,N/A,Rain,Light Rain,40,2012-12-14 06:23:00
7:55 AM,41.0,41.0,100,30.12,-9999.0,NE,10.4,-,N/A,Rain,Rain,50,2012-12-14 06:55:00
8:55 AM,42.8,41.0,93,30.12,3.1,NE,8.1,-,N/A,Rain,Light Rain,40,2012-12-14 07:55:00
9:09 AM,42.8,41.0,93,30.12,1.9,NE,9.2,-,N/A,Rain,Light Rain,40,2012-12-14 08:09:00
9:55 AM,44.6,41.0,87,30.12,1.6,NNE,8.1,-,N/A,Rain,Rain,20,2012-12-14 08:55:00
10:00 AM,45,41,82,30.15,2,NNE,8.1,,,Rain,Rain,20,2012-12-14 09:00:00
10:11 AM,44.6,41.0,87,30.12,2.2,North,4.6,-,N/A,Rain,Light Rain,10,2012-12-14 09:11:00
10:55 AM,46.4,42.8,87,30.12,2.2,NE,5.8,-,N/A,Rain,Light Rain,40,2012-12-14 09:55:00
11:55 AM,48.2,44.6,87,30.12,2.2,North,3.5,-,N/A,Rain,Light Rain,350,2012-12-14 10:55:00
12:55 PM,50.0,44.6,82,30.09,2.5,ENE,5.8,-,N/A,Thunderstorm,Mostly Cloudy,70,2012-12-14 11:55:00
1:00 PM,50,45,78,30.12,2,ENE,5.8,,,,Overcast,70,2012-12-14 12:00:00
1:55 PM,50.0,46.4,87,30.09,2.2,North,5.8,-,N/A,Rain,Light Rain,350,2012-12-14 12:55:00
2:22 PM,50.0,46.4,87,30.09,1.6,North,5.8,-,N/A,Rain-Thunderstorm,Light Thunderstorms and Rain,350,2012-12-14 13:22:00
2:55 PM,50.0,46.4,87,30.09,0.9,North,5.8,-,N/A,Rain-Thunderstorm,Light Thunderstorms and Rain,350,2012-12-14 13:55:00
3:17 PM,51.8,46.4,82,30.09,-9999.0,NE,2.3,-,N/A,Rain-Thunderstorm,Light Thunderstorms and Rain,50,2012-12-14 14:17:00
3:55 PM,51.8,46.4,82,30.09,-9999.0,ESE,4.6,-,N/A,Rain-Thunderstorm,Light Thunderstorms and Rain,110,2012-12-14 14:55:00
4:00 PM,52,47,78,30.12,2,ESE,4.6,,,Rain-Thunderstorm,Thunderstorms and Rain,110,2012-12-14 15:00:00
4:55 PM,51.8,46.4,82,30.09,2.5,East,5.8,-,N/A,Rain,Light Rain,100,2012-12-14 15:55:00
5:55 PM,51.8,48.2,88,30.09,2.5,ESE,6.9,-,N/A,Rain,Light Rain,110,2012-12-14 16:55:00
6:55 PM,50.0,44.6,82,30.12,2.8,ESE,5.8,-,N/A,,Mostly Cloudy,110,2012-12-14 17:55:00
7:00 PM,50,45,78,30.13,3,ESE,5.8,,,,,110,2012-12-14 18:00:00
8:55 PM,46.4,42.8,87,30.12,0.7,North,2.3,-,N/A,Fog,Patches of Fog,360,2012-12-14 19:55:00
9:55 PM,46.4,42.8,87,30.12,0.4,North,2.3,-,N/A,Fog,Fog,360,2012-12-14 20:55:00
10:00 PM,46,42,81,30.15,0,North,2.3,,,Fog,Partial Fog,0,2012-12-14 21:00:00
10:55 PM,46.4,42.8,87,30.12,0.4,East,2.3,-,N/A,Fog,Fog,90,2012-12-14 21:55:00
11:55 PM,44.6,41.0,87,30.15,0.2,NNE,3.5,-,N/A,Fog,Fog,30,2012-12-14 22:55:00